EWG1WH LICC-EDDL

Flight info

Callsign EWG1WH
Flight time N/A
Altitude 38000
Route BUDIN DCT NAXES DCT SUMIR DCT UNIMI L12 MOGTI DCT KPT DCT HAREM/N0451F370 DCT LOHRE/N0450F380 Z850 ARPEG/N0420F240 Z850 ADEMI T854 DOMUX DOMUX1A
Aircraft A319/M-SDE3FGHIRWY/LB1

Departure

Time 2026-04-28 13:14
Airport Catania-Fontanarossa Airport (LICC)

Arrival

Time N/A
Airport Düsseldorf Airport (EDDL)
Time Latitude Longitude Altitude Speed Heading
2026-04-28 12:56 37.46948 15.06527 51 ft 0 kts 18°
2026-04-28 13:06 37.46930 15.06520 51 ft 4 kts 18°
2026-04-28 13:06 37.46905 15.06509 49 ft 4 kts 18°
2026-04-28 13:07 37.46882 15.06499 46 ft 2 kts 11°
2026-04-28 13:07 37.46860 15.06495 46 ft 4 kts 351°
2026-04-28 13:07 37.46839 15.06508 50 ft 4 kts 297°
2026-04-28 13:07 37.46834 15.06525 49 ft 2 kts 265°
2026-04-28 13:08 37.46834 15.06528 50 ft 0 kts 264°
2026-04-28 13:09 37.46834 15.06524 49 ft 2 kts 265°
2026-04-28 13:09 37.46834 15.06513 48 ft 0 kts 266°
2026-04-28 13:09 37.46833 15.06506 49 ft 3 kts 266°
2026-04-28 13:10 37.46830 15.06465 49 ft 6 kts 263°
2026-04-28 13:10 37.46823 15.06402 51 ft 8 kts 263°
2026-04-28 13:10 37.46816 15.06318 51 ft 11 kts 264°
2026-04-28 13:10 37.46808 15.06220 51 ft 12 kts 265°
2026-04-28 13:11 37.46799 15.06110 51 ft 13 kts 264°
2026-04-28 13:11 37.46789 15.05987 51 ft 15 kts 264°
2026-04-28 13:11 37.46778 15.05853 49 ft 16 kts 263°
2026-04-28 13:11 37.46765 15.05709 51 ft 17 kts 263°
2026-04-28 13:12 37.46752 15.05556 51 ft 18 kts 260°
2026-04-28 13:12 37.46662 15.05465 51 ft 19 kts 179°
2026-04-28 13:12 37.46584 15.05549 50 ft 3 kts 78°
2026-04-28 13:12 37.46585 15.05550 50 ft 0 kts 78°
2026-04-28 13:13 37.46590 15.05599 50 ft 19 kts 82°
2026-04-28 13:13 37.46628 15.06035 51 ft 80 kts 84°
2026-04-28 13:13 37.46710 15.06976 51 ft 135 kts 84°
2026-04-28 13:13 37.46816 15.08201 575 ft 137 kts 82°
2026-04-28 13:14 37.46937 15.09363 1307 ft 133 kts 82°
2026-04-28 13:14 37.47095 15.10576 1652 ft 153 kts 83°
2026-04-28 13:14 37.47287 15.11991 1951 ft 175 kts 83°
2026-04-28 13:14 37.47510 15.13619 2266 ft 201 kts 82°
2026-04-28 13:15 37.47765 15.15460 2719 ft 225 kts 82°
2026-04-28 13:15 37.48048 15.17496 3287 ft 244 kts 82°
2026-04-28 13:15 37.48344 15.19625 4078 ft 254 kts 81°
2026-04-28 13:15 37.48655 15.21842 4996 ft 260 kts 81°
2026-04-28 13:16 37.48971 15.24102 5931 ft 264 kts 81°
2026-04-28 13:16 37.49358 15.26383 6859 ft 269 kts 71°
2026-04-28 13:16 37.50183 15.28509 7695 ft 273 kts 54°
2026-04-28 13:16 37.50998 15.29756 8126 ft 282 kts 42°
2026-04-28 13:17 37.52593 15.31239 8899 ft 288 kts 28°
2026-04-28 13:17 37.54321 15.32556 9778 ft 292 kts 28°
2026-04-28 13:17 37.56669 15.34376 10497 ft 312 kts 29°
2026-04-28 13:17 37.57953 15.35378 10673 ft 328 kts 29°
2026-04-28 13:18 37.59930 15.36928 10989 ft 347 kts 30°
2026-04-28 13:18 37.62001 15.38557 11626 ft 353 kts 30°
2026-04-28 13:18 37.64097 15.40208 12340 ft 358 kts 30°
2026-04-28 13:18 37.66227 15.41889 13052 ft 362 kts 30°
2026-04-28 13:19 37.68438 15.43420 13739 ft 364 kts 21°
2026-04-28 13:19 37.70869 15.44343 14375 ft 365 kts
2026-04-28 13:19 37.73405 15.44566 14996 ft 366 kts 355°
2026-04-28 13:19 37.75920 15.44091 15619 ft 366 kts 343°
2026-04-28 13:20 37.78293 15.43023 16241 ft 368 kts 336°
2026-04-28 13:20 37.80687 15.41821 16867 ft 371 kts 336°
2026-04-28 13:20 37.83104 15.40606 17496 ft 374 kts 336°
2026-04-28 13:20 37.85541 15.39383 18136 ft 378 kts 336°
2026-04-28 13:21 37.87998 15.38151 18713 ft 381 kts 336°
2026-04-28 13:21 37.90482 15.36909 19244 ft 385 kts 336°
2026-04-28 13:21 37.92957 15.35671 19795 ft 388 kts 336°
2026-04-28 13:21 37.95484 15.34401 20389 ft 390 kts 335°
2026-04-28 13:22 37.98020 15.33125 20940 ft 393 kts 335°
2026-04-28 13:22 38.00539 15.31857 21508 ft 395 kts 335°
2026-04-28 13:22 38.03110 15.30563 22054 ft 397 kts 335°
2026-04-28 13:22 38.05700 15.29260 22612 ft 400 kts 335°
2026-04-28 13:23 38.08264 15.27969 23166 ft 402 kts 335°
2026-04-28 13:23 38.10869 15.26660 23684 ft 404 kts 335°
2026-04-28 13:23 38.13494 15.25338 24052 ft 407 kts 335°
2026-04-28 13:23 38.16152 15.23997 24458 ft 410 kts 335°
2026-04-28 13:24 38.18810 15.22655 24884 ft 412 kts 334°
2026-04-28 13:24 38.21487 15.21303 25301 ft 413 kts 334°
2026-04-28 13:24 38.24132 15.19964 25714 ft 415 kts 334°
2026-04-28 13:24 38.26822 15.18598 26136 ft 417 kts 334°
2026-04-28 13:25 38.29524 15.17224 26554 ft 418 kts 334°
2026-04-28 13:25 38.32236 15.15849 26966 ft 420 kts 334°
2026-04-28 13:25 38.34959 15.14468 27371 ft 421 kts 334°
2026-04-28 13:25 38.37693 15.13076 27772 ft 423 kts 334°
2026-04-28 13:26 38.40447 15.11671 28082 ft 427 kts 334°
2026-04-28 13:26 38.43194 15.10270 28432 ft 429 kts 334°